Eglinton, United Kingdom

8:31 PM BST on August 17, 2017 (GMT +0100)
Eglinton

Weather History for EGAE - May, 2013

Change the Weather History Date:

Tuesday, May 14, 2013

  Actual Average Record
Temperature  
Mean Temperature 50 °F -  
Max Temperature 57 °F 56 °F 69 °F (2000)
Min Temperature 44 °F 48 °F 37 °F (2016)
Degree Days  
Heating Degree Days 14    
Moisture  
Dew Point 41 °F    
Average Humidity 78    
Maximum Humidity 87    
Minimum Humidity 44    
Precipitation  
Precipitation 0.00 in - - ()
Sea Level Pressure  
Sea Level Pressure 29.41 in    
Wind  
Wind Speed 14 mph ()    
Max Wind Speed 25 mph    
Max Gust Speed 37 mph    
Visibility 6.1 miles    
Events Rain    
Averages and records for this station are not official NWS values.
T = Trace of Precipitation, MM = Missing Value Source: Averaged Metar Reports

Daily Weather History Graph

Daily Weather History Graph

Search for Another Location

Airport or City:

Trip Planner

Search our weather history database for the weather conditions in past years. The results will help you decide how hot, cold, wet, or windy it might be!

Date:

Astronomy

May. 14, 2013 Rise Set
Actual Time 5:22 AM BST 9:28 PM BST
Civil Twilight 4:35 AM BST 10:16 PM BST
Nautical Twilight 3:25 AM BST 11:27 PM BST
Astronomical Twilight 1:57 AM BST 12:52 AM BST
Moon 8:50 AM BST (5/14) 12:28 AM BST (5/14)
Length of Visible Light 17h 41m
Length of Day
16h 06m
Waxing Crescent, 17% of the Moon is Illuminated
May 14
Waxing Crescent
May 18
First Quarter
May 25
Full
May 31
Last Quarter
Jun 8
New

Hourly Weather History & Observations

Time (BST) Temp. Windchill Dew Point Humidity Pressure Visibility Wind Dir Wind Speed Gust Speed Precip Events Conditions
8:20 AM 48.2 °F - 41.0 °F 76% 29.42 in 6.2 mi SW 20.7 mph - N/A Rain Light Rain
8:50 AM 44.6 °F 35.5 °F 39.2 °F 81% 29.42 in 6.2 mi WSW 25.3 mph 36.8 mph N/A Rain Rain
9:20 AM 44.6 °F 36.9 °F 41.0 °F 87% 29.42 in 6.2 mi WSW 18.4 mph - N/A Rain Light Rain
9:50 AM 46.4 °F 38.7 °F 42.8 °F 87% 29.42 in 6.2 mi WSW 20.7 mph - N/A   Mostly Cloudy
10:20 AM 46.4 °F 39.8 °F 42.8 °F 87% 29.42 in 6.2 mi WSW 16.1 mph - N/A   Scattered Clouds
10:50 AM 48.2 °F - 42.8 °F 82% 29.42 in 6.2 mi SW 16.1 mph - N/A   Scattered Clouds
11:20 AM 46.4 °F 39.8 °F 42.8 °F 87% 29.42 in 6.2 mi SW 16.1 mph - N/A   Mostly Cloudy
11:50 AM 48.2 °F - 42.8 °F 82% 29.39 in 6.2 mi SW 15.0 mph - N/A   Mostly Cloudy
12:20 PM 48.2 °F - 41.0 °F 76% 29.39 in 6.2 mi NNW 8.1 mph - N/A Rain Rain Showers
12:50 PM 50.0 °F - 42.8 °F 76% 29.39 in 5.6 mi NNE 5.8 mph - N/A   Mostly Cloudy
1:20 PM 53.6 °F - 41.0 °F 62% 29.39 in 6.2 mi West 9.2 mph - N/A   Mostly Cloudy
1:50 PM 51.8 °F - 39.2 °F 62% 29.39 in 6.2 mi West 12.7 mph - N/A Rain Light Rain Showers
2:20 PM 55.4 °F - 39.2 °F 54% 29.36 in 6.2 mi West 11.5 mph - N/A   Mostly Cloudy
2:50 PM 57.2 °F - 35.6 °F 44% 29.36 in 6.2 mi SW 11.5 mph - N/A   Mostly Cloudy
3:20 PM 55.4 °F - 41.0 °F 58% 29.36 in 6.2 mi SW 11.5 mph - N/A   Scattered Clouds
3:50 PM 50.0 °F - 41.0 °F 71% 29.39 in 6.2 mi WSW 19.6 mph - N/A Rain Light Rain Showers
4:20 PM 48.2 °F - 44.6 °F 87% 29.39 in 6.2 mi West 12.7 mph - N/A Rain Light Rain Showers
4:50 PM 46.4 °F 40.1 °F 41.0 °F 81% 29.42 in 6.2 mi NNE 15.0 mph - N/A Rain Light Rain Showers
5:20 PM 44.6 °F 40.2 °F 41.0 °F 87% 29.42 in 5.6 mi North 8.1 mph - N/A Rain Rain
5:50 PM 46.4 °F 42.4 °F 42.8 °F 87% 29.44 in 5.6 mi North 8.1 mph - N/A Rain Light Rain
6:20 PM 44.6 °F 38.8 °F 41.0 °F 87% 29.44 in 5.6 mi North 11.5 mph - N/A Rain Rain
6:50 PM 46.4 °F 40.4 °F 42.8 °F 87% 29.44 in 6.2 mi NNE 13.8 mph - N/A Rain Light Rain
7:20 PM 46.4 °F 39.8 °F 42.8 °F 87% 29.44 in 6.2 mi NNE 16.1 mph - N/A   Mostly Cloudy
7:50 PM 46.4 °F 40.4 °F 42.8 °F 87% 29.47 in 6.2 mi North 13.8 mph - N/A   Mostly Cloudy
8:20 PM 46.4 °F 40.7 °F 41.0 °F 81% 29.47 in 6.2 mi North 12.7 mph - N/A   Mostly Cloudy